Index of /20260501/WXO-DD/model_gdps/15km/00/171
Name Last modified Size Description
Parent Directory -
20260501T00Z_MSC_GDPS_AirTemp_AGL-120m_LatLon0.15_PT171H.grib2 2026-05-01 04:32 901K
20260501T00Z_MSC_GDPS_AirTemp_AGL-2m_LatLon0.15_PT171H.grib2 2026-05-01 04:32 1.0M
20260501T00Z_MSC_GDPS_AirTemp_AGL-40m_LatLon0.15_PT171H.grib2 2026-05-01 04:32 923K
20260501T00Z_MSC_GDPS_AirTemp_AGL-80m_LatLon0.15_PT171H.grib2 2026-05-01 04:32 911K
20260501T00Z_MSC_GDPS_AirTemp_IsbL-0001_LatLon0.15_PT171H.grib2 2026-05-01 04:32 665K
20260501T00Z_MSC_GDPS_AirTemp_IsbL-0005_LatLon0.15_PT171H.grib2 2026-05-01 04:32 686K
20260501T00Z_MSC_GDPS_AirTemp_IsbL-0500_LatLon0.15_PT171H.grib2 2026-05-01 04:32 1.0M
20260501T00Z_MSC_GDPS_AirTemp_IsbL-0700_LatLon0.15_PT171H.grib2 2026-05-01 04:32 952K
20260501T00Z_MSC_GDPS_AirTemp_IsbL-0850_LatLon0.15_PT171H.grib2 2026-05-01 04:32 1.1M
20260501T00Z_MSC_GDPS_AirTemp_IsbL-0925_LatLon0.15_PT171H.grib2 2026-05-01 04:32 1.1M
20260501T00Z_MSC_GDPS_AirTemp_IsbL-1000_LatLon0.15_PT171H.grib2 2026-05-01 04:32 1.1M
20260501T00Z_MSC_GDPS_Albedo_Sfc_LatLon0.15_PT171H.grib2 2026-05-01 04:32 243K
20260501T00Z_MSC_GDPS_ConvectivePrecip-Accum_Sfc_LatLon0.15_PT171H.grib2 2026-05-01 04:32 3.8M
20260501T00Z_MSC_GDPS_DewPointDepression_AGL-2m_LatLon0.15_PT171H.grib2 2026-05-01 04:32 766K
20260501T00Z_MSC_GDPS_DewPointDepression_IsbL-0500_LatLon0.15_PT171H.grib2 2026-05-01 04:32 1.0M
20260501T00Z_MSC_GDPS_DewPointDepression_IsbL-0700_LatLon0.15_PT171H.grib2 2026-05-01 04:32 1.1M
20260501T00Z_MSC_GDPS_DewPointDepression_IsbL-0850_LatLon0.15_PT171H.grib2 2026-05-01 04:32 1.2M
20260501T00Z_MSC_GDPS_DewPointDepression_IsbL-0925_LatLon0.15_PT171H.grib2 2026-05-01 04:32 1.0M
20260501T00Z_MSC_GDPS_DewPointDepression_IsbL-1000_LatLon0.15_PT171H.grib2 2026-05-01 04:32 1.0M
20260501T00Z_MSC_GDPS_DewPoint_AGL-2m_LatLon0.15_PT171H.grib2 2026-05-01 04:32 607K
20260501T00Z_MSC_GDPS_DownwardLongwaveRadiationFlux-Accum_Sfc_LatLon0.15_PT171H.grib2 2026-05-01 04:32 642K
20260501T00Z_MSC_GDPS_DownwardShortwaveRadiationFlux-Accum_Sfc_LatLon0.15_PT171H.grib2 2026-05-01 04:32 827K
20260501T00Z_MSC_GDPS_FreezingRain-Accum_Sfc_LatLon0.15_PT171H.grib2 2026-05-01 04:32 435K
20260501T00Z_MSC_GDPS_GeopotentialHeight_IsbL-0001_LatLon0.15_PT171H.grib2 2026-05-01 04:32 429K
20260501T00Z_MSC_GDPS_GeopotentialHeight_IsbL-0005_LatLon0.15_PT171H.grib2 2026-05-01 04:32 488K
20260501T00Z_MSC_GDPS_GeopotentialHeight_IsbL-0500_LatLon0.15_PT171H.grib2 2026-05-01 04:32 526K
20260501T00Z_MSC_GDPS_GeopotentialHeight_IsbL-0700_LatLon0.15_PT171H.grib2 2026-05-01 04:32 680K
20260501T00Z_MSC_GDPS_GeopotentialHeight_IsbL-0850_LatLon0.15_PT171H.grib2 2026-05-01 04:32 707K
20260501T00Z_MSC_GDPS_GeopotentialHeight_IsbL-0925_LatLon0.15_PT171H.grib2 2026-05-01 04:32 731K
20260501T00Z_MSC_GDPS_GeopotentialHeight_IsbL-1000_LatLon0.15_PT171H.grib2 2026-05-01 04:32 784K
20260501T00Z_MSC_GDPS_IcePellets-Accum_Sfc_LatLon0.15_PT171H.grib2 2026-05-01 04:32 153K
20260501T00Z_MSC_GDPS_LatentHeatNetFlux_Sfc_LatLon0.15_PT171H.grib2 2026-05-01 04:32 685K
20260501T00Z_MSC_GDPS_NetLongwaveRadiationFlux-Accum_Sfc_LatLon0.15_PT171H.grib2 2026-05-01 04:32 860K
20260501T00Z_MSC_GDPS_NetShortwaveRadiationFlux-Accum_Sfc_LatLon0.15_PT171H.grib2 2026-05-01 04:32 1.1M
20260501T00Z_MSC_GDPS_O3MixingRatio_Sfc_LatLon0.15_PT171H.grib2 2026-05-01 04:51 1.9M
20260501T00Z_MSC_GDPS_O3_EAtm_LatLon0.15_PT171H.grib2 2026-05-01 04:51 2.4M
20260501T00Z_MSC_GDPS_PlanetaryBoundaryLayerHeight_Sfc_LatLon0.15_PT171H.grib2 2026-05-01 04:32 2.4M
20260501T00Z_MSC_GDPS_Precip-Accum_Sfc_LatLon0.15_PT171H.grib2 2026-05-01 04:32 5.0M
20260501T00Z_MSC_GDPS_PrecipRate_Sfc_LatLon0.15_PT171H.grib2 2026-05-01 04:32 3.1M
20260501T00Z_MSC_GDPS_Pressure_MSL_LatLon0.15_PT171H.grib2 2026-05-01 04:32 719K
20260501T00Z_MSC_GDPS_Pressure_Sfc_LatLon0.15_PT171H.grib2 2026-05-01 04:32 1.1M
20260501T00Z_MSC_GDPS_RadiativeTemp_Sfc_LatLon0.15_PT171H.grib2 2026-05-01 04:32 667K
20260501T00Z_MSC_GDPS_Rain-Accum_Sfc_LatLon0.15_PT171H.grib2 2026-05-01 04:32 3.9M
20260501T00Z_MSC_GDPS_RelativeHumidity_AGL-2m_LatLon0.15_PT171H.grib2 2026-05-01 04:32 1.0M
20260501T00Z_MSC_GDPS_Runoff-Accum_Sfc_LatLon0.15_PT171H.grib2 2026-05-01 04:32 124K
20260501T00Z_MSC_GDPS_SensibleHeatNetFlux_Sfc_LatLon0.15_PT171H.grib2 2026-05-01 04:32 464K
20260501T00Z_MSC_GDPS_Snow-Accum_Sfc_LatLon0.15_PT171H.grib2 2026-05-01 04:32 2.1M
20260501T00Z_MSC_GDPS_SnowDepth_Sfc_LatLon0.15_PT171H.grib2 2026-05-01 04:32 1.7M
20260501T00Z_MSC_GDPS_SoilTemp_DBS-0to10cm_LatLon0.15_PT171H.grib2 2026-05-01 04:32 513K
20260501T00Z_MSC_GDPS_SoilTemp_Sfc_LatLon0.15_PT171H.grib2 2026-05-01 04:32 573K
20260501T00Z_MSC_GDPS_SoilVolumetricWaterContent_DBS-0to10cm_LatLon0.15_PT171H.grib2 2026-05-01 04:32 596K
20260501T00Z_MSC_GDPS_SoilVolumetricWaterContent_DBS-0to1cm_LatLon0.15_PT171H.grib2 2026-05-01 04:32 654K
20260501T00Z_MSC_GDPS_SpecificHumidity_AGL-120m_LatLon0.15_PT171H.grib2 2026-05-01 04:32 1.1M
20260501T00Z_MSC_GDPS_SpecificHumidity_AGL-2m_LatLon0.15_PT171H.grib2 2026-05-01 04:32 1.2M
20260501T00Z_MSC_GDPS_SpecificHumidity_AGL-40m_LatLon0.15_PT171H.grib2 2026-05-01 04:32 1.1M
20260501T00Z_MSC_GDPS_SpecificHumidity_AGL-80m_LatLon0.15_PT171H.grib2 2026-05-01 04:32 1.1M
20260501T00Z_MSC_GDPS_SpecificHumidity_IsbL-0001_LatLon0.15_PT171H.grib2 2026-05-01 04:32 1.2M
20260501T00Z_MSC_GDPS_SpecificHumidity_IsbL-0005_LatLon0.15_PT171H.grib2 2026-05-01 04:32 1.1M
20260501T00Z_MSC_GDPS_SpecificHumidity_IsbL-0500_LatLon0.15_PT171H.grib2 2026-05-01 04:32 1.5M
20260501T00Z_MSC_GDPS_SpecificHumidity_IsbL-0700_LatLon0.15_PT171H.grib2 2026-05-01 04:32 1.6M
20260501T00Z_MSC_GDPS_SpecificHumidity_IsbL-0850_LatLon0.15_PT171H.grib2 2026-05-01 04:32 2.0M
20260501T00Z_MSC_GDPS_SpecificHumidity_IsbL-0925_LatLon0.15_PT171H.grib2 2026-05-01 04:32 1.9M
20260501T00Z_MSC_GDPS_SpecificHumidity_IsbL-1000_LatLon0.15_PT171H.grib2 2026-05-01 04:32 1.5M
20260501T00Z_MSC_GDPS_SpecificHumidity_Sfc_LatLon0.15_PT171H.grib2 2026-05-01 04:32 644K
20260501T00Z_MSC_GDPS_Thickness_IsbL-0850to0700_LatLon0.15_PT171H.grib2 2026-05-01 04:32 467K
20260501T00Z_MSC_GDPS_Thickness_IsbL-1000to0500_LatLon0.15_PT171H.grib2 2026-05-01 04:32 373K
20260501T00Z_MSC_GDPS_Thickness_IsbL-1000to0850_LatLon0.15_PT171H.grib2 2026-05-01 04:32 489K
20260501T00Z_MSC_GDPS_TotalCloudCover_Sfc_LatLon0.15_PT171H.grib2 2026-05-01 04:32 831K
20260501T00Z_MSC_GDPS_UVIndex-ClearSky_Sfc_LatLon0.15_PT171H.grib2 2026-05-01 04:51 1.0M
20260501T00Z_MSC_GDPS_UVIndex_Sfc_LatLon0.15_PT171H.grib2 2026-05-01 04:51 1.5M
20260501T00Z_MSC_GDPS_UpwardLongwaveRadiationFlux_NTAtm_LatLon0.15_PT171H.grib2 2026-05-01 04:32 1.1M
20260501T00Z_MSC_GDPS_VerticalVelocity_IsbL-0500_LatLon0.15_PT171H.grib2 2026-05-01 04:32 1.3M
20260501T00Z_MSC_GDPS_VerticalVelocity_IsbL-0700_LatLon0.15_PT171H.grib2 2026-05-01 04:32 1.4M
20260501T00Z_MSC_GDPS_VerticalVelocity_IsbL-0850_LatLon0.15_PT171H.grib2 2026-05-01 04:32 1.3M
20260501T00Z_MSC_GDPS_WindDir_AGL-10m_LatLon0.15_PT171H.grib2 2026-05-01 04:32 1.3M
20260501T00Z_MSC_GDPS_WindDir_AGL-120m_LatLon0.15_PT171H.grib2 2026-05-01 04:32 1.3M
20260501T00Z_MSC_GDPS_WindDir_AGL-40m_LatLon0.15_PT171H.grib2 2026-05-01 04:32 1.4M
20260501T00Z_MSC_GDPS_WindDir_AGL-80m_LatLon0.15_PT171H.grib2 2026-05-01 04:32 1.4M
20260501T00Z_MSC_GDPS_WindDir_IsbL-0001_LatLon0.15_PT171H.grib2 2026-05-01 04:32 674K
20260501T00Z_MSC_GDPS_WindDir_IsbL-0005_LatLon0.15_PT171H.grib2 2026-05-01 04:32 814K
20260501T00Z_MSC_GDPS_WindDir_IsbL-0500_LatLon0.15_PT171H.grib2 2026-05-01 04:32 1.4M
20260501T00Z_MSC_GDPS_WindDir_IsbL-0700_LatLon0.15_PT171H.grib2 2026-05-01 04:32 1.6M
20260501T00Z_MSC_GDPS_WindDir_IsbL-0850_LatLon0.15_PT171H.grib2 2026-05-01 04:32 1.9M
20260501T00Z_MSC_GDPS_WindDir_IsbL-0925_LatLon0.15_PT171H.grib2 2026-05-01 04:32 2.0M
20260501T00Z_MSC_GDPS_WindDir_IsbL-1000_LatLon0.15_PT171H.grib2 2026-05-01 04:32 2.0M
20260501T00Z_MSC_GDPS_WindGust-Max_AGL-10m_LatLon0.15_PT171H.grib2 2026-05-01 04:32 2.2M
20260501T00Z_MSC_GDPS_WindGust-Min_AGL-10m_LatLon0.15_PT171H.grib2 2026-05-01 04:32 2.2M
20260501T00Z_MSC_GDPS_WindGust_AGL-10m_LatLon0.15_PT171H.grib2 2026-05-01 04:32 2.2M
20260501T00Z_MSC_GDPS_WindSpeed_AGL-10m_LatLon0.15_PT171H.grib2 2026-05-01 04:32 1.1M
20260501T00Z_MSC_GDPS_WindSpeed_AGL-120m_LatLon0.15_PT171H.grib2 2026-05-01 04:32 1.2M
20260501T00Z_MSC_GDPS_WindSpeed_AGL-40m_LatLon0.15_PT171H.grib2 2026-05-01 04:32 1.2M
20260501T00Z_MSC_GDPS_WindSpeed_AGL-80m_LatLon0.15_PT171H.grib2 2026-05-01 04:32 1.2M
20260501T00Z_MSC_GDPS_WindSpeed_IsbL-0001_LatLon0.15_PT171H.grib2 2026-05-01 04:32 655K
20260501T00Z_MSC_GDPS_WindSpeed_IsbL-0005_LatLon0.15_PT171H.grib2 2026-05-01 04:32 693K
20260501T00Z_MSC_GDPS_WindSpeed_IsbL-0500_LatLon0.15_PT171H.grib2 2026-05-01 04:32 1.1M
20260501T00Z_MSC_GDPS_WindSpeed_IsbL-0700_LatLon0.15_PT171H.grib2 2026-05-01 04:32 1.5M
20260501T00Z_MSC_GDPS_WindSpeed_IsbL-0850_LatLon0.15_PT171H.grib2 2026-05-01 04:32 1.7M
20260501T00Z_MSC_GDPS_WindSpeed_IsbL-0925_LatLon0.15_PT171H.grib2 2026-05-01 04:32 1.9M
20260501T00Z_MSC_GDPS_WindSpeed_IsbL-1000_LatLon0.15_PT171H.grib2 2026-05-01 04:32 1.9M
20260501T00Z_MSC_GDPS_WindU_AGL-10m_LatLon0.15_PT171H.grib2 2026-05-01 04:32 1.3M
20260501T00Z_MSC_GDPS_WindU_AGL-120m_LatLon0.15_PT171H.grib2 2026-05-01 04:32 963K
20260501T00Z_MSC_GDPS_WindU_AGL-40m_LatLon0.15_PT171H.grib2 2026-05-01 04:32 958K
20260501T00Z_MSC_GDPS_WindU_AGL-80m_LatLon0.15_PT171H.grib2 2026-05-01 04:32 963K
20260501T00Z_MSC_GDPS_WindU_IsbL-0001_LatLon0.15_PT171H.grib2 2026-05-01 04:32 506K
20260501T00Z_MSC_GDPS_WindU_IsbL-0005_LatLon0.15_PT171H.grib2 2026-05-01 04:32 691K
20260501T00Z_MSC_GDPS_WindU_IsbL-0500_LatLon0.15_PT171H.grib2 2026-05-01 04:32 1.1M
20260501T00Z_MSC_GDPS_WindU_IsbL-0700_LatLon0.15_PT171H.grib2 2026-05-01 04:32 1.2M
20260501T00Z_MSC_GDPS_WindU_IsbL-0850_LatLon0.15_PT171H.grib2 2026-05-01 04:32 1.4M
20260501T00Z_MSC_GDPS_WindU_IsbL-0925_LatLon0.15_PT171H.grib2 2026-05-01 04:32 1.5M
20260501T00Z_MSC_GDPS_WindU_IsbL-1000_LatLon0.15_PT171H.grib2 2026-05-01 04:32 1.4M
20260501T00Z_MSC_GDPS_WindV_AGL-10m_LatLon0.15_PT171H.grib2 2026-05-01 04:32 1.3M
20260501T00Z_MSC_GDPS_WindV_AGL-120m_LatLon0.15_PT171H.grib2 2026-05-01 04:32 1.0M
20260501T00Z_MSC_GDPS_WindV_AGL-40m_LatLon0.15_PT171H.grib2 2026-05-01 04:32 957K
20260501T00Z_MSC_GDPS_WindV_AGL-80m_LatLon0.15_PT171H.grib2 2026-05-01 04:32 964K
20260501T00Z_MSC_GDPS_WindV_IsbL-0001_LatLon0.15_PT171H.grib2 2026-05-01 04:32 719K
20260501T00Z_MSC_GDPS_WindV_IsbL-0005_LatLon0.15_PT171H.grib2 2026-05-01 04:32 861K
20260501T00Z_MSC_GDPS_WindV_IsbL-0500_LatLon0.15_PT171H.grib2 2026-05-01 04:32 886K
20260501T00Z_MSC_GDPS_WindV_IsbL-0700_LatLon0.15_PT171H.grib2 2026-05-01 04:32 1.2M
20260501T00Z_MSC_GDPS_WindV_IsbL-0850_LatLon0.15_PT171H.grib2 2026-05-01 04:32 1.4M
20260501T00Z_MSC_GDPS_WindV_IsbL-0925_LatLon0.15_PT171H.grib2 2026-05-01 04:32 1.4M
20260501T00Z_MSC_GDPS_WindV_IsbL-1000_LatLon0.15_PT171H.grib2 2026-05-01 04:32 1.4M